Location: Newark
(37.8333°N, 119.5000°W)
Time: 09:37:20
(UTC+00:00)

Tiros 1 despin weight - Pass Details

Date: 22 August 2019
Orbit: 593 x 643 km, 48.2° (Epoch: 20 October)

Event Time Altitude Azimuth Distance (km) Brightness Sun altitude
Rises 15:10:08 0° 285° (WNW) 2,908 ? 20.8°
Reaches altitude 10° 15:13:31 10° 260° (W) 2,007 ? 21.4°
Maximum altitude 15:15:47 14° 230° (SW) 1,781 ? 21.9°
Drops below altitude 10° 15:18:04 10° 200° (SSW) 2,013 ? 22.3°
Sets 15:21:29 0° 175° (S) 2,923 ? 23.0°
